Location: Unspecified
(22.6800°N, 112.2000°E)
Time: 01:14:01
(UTC+08:00)

A-11 Canister half - All Passes

Search period start: 29 July 2021 00:00
Search period end: 08 August 2021 00:00
Orbit: 1513 x 1687 km, 47.2° (Epoch: 28 July)

Date Brightness Start Highest point End Pass type
(mag) Time Alt. Az. Time Alt. Az. Time Alt. Az.
29 Jul - 00:47:07 10° NW 00:56:59 52° NE 01:06:39 10° ESE visible
29 Jul - 02:52:29 10° WNW 03:01:54 45° SW 03:11:05 10° SSE visible
29 Jul - 15:54:56 10° SSW 16:04:12 58° SE 16:13:48 10° NE daylight
29 Jul - 18:00:23 10° WSW 18:09:24 42° NW 18:18:44 10° NNE daylight
29 Jul - 20:11:00 10° NW 20:17:12 18° NNW 20:23:30 10° NNE visible
29 Jul - 22:19:43 10° NNW 22:26:30 19° NNE 22:33:17 10° ENE visible
30 Jul - 00:24:11 10° NW 00:33:58 49° NE 00:43:34 10° ESE visible
30 Jul - 02:29:25 10° WNW 02:38:59 48° SW 02:48:20 10° SSE visible
30 Jul - 15:32:11 10° SSW 15:41:18 53° SE 15:50:46 10° NE daylight
30 Jul - 17:37:17 10° WSW 17:46:23 44° NW 17:55:49 10° NE daylight
30 Jul - 19:47:42 10° NW 19:54:01 18° NNW 20:00:27 10° NNE visible
30 Jul - 21:56:44 10° NNW 22:03:20 19° NNE 22:09:57 10° NE visible
31 Jul - 00:01:16 10° NW 00:10:57 46° NE 00:20:29 10° ESE visible
31 Jul - 02:06:21 10° WNW 02:16:04 52° SW 02:25:35 10° SSE visible
31 Jul - 15:09:26 10° SSW 15:18:25 49° SE 15:27:43 10° ENE daylight
31 Jul - 17:14:13 10° WSW 17:23:22 47° NW 17:32:54 10° NE daylight
31 Jul - 19:24:24 10° NW 19:30:52 19° NNW 19:37:27 10° NNE visible
31 Jul - 21:33:45 10° NNW 21:40:10 18° NNE 21:46:36 10° NE visible
31 Jul - 23:38:21 10° NW 23:47:55 43° NE 23:57:21 10° ESE visible
01 Aug - 01:43:18 10° NW 01:53:09 57° SW 02:02:49 10° SSE visible
01 Aug - 14:46:44 10° SSW 14:55:32 45° SE 15:04:38 10° ENE daylight
01 Aug - 16:51:10 10° WSW 17:00:22 50° NW 17:09:58 10° NE daylight
01 Aug - 19:01:07 10° WNW 19:07:42 19° NNW 19:14:26 10° NNE daylight
01 Aug - 21:10:45 10° NNW 21:16:59 18° NNE 21:23:16 10° NE visible
01 Aug - 23:15:26 10° NNW 23:24:53 41° NE 23:34:13 10° ESE visible
02 Aug - 01:20:16 10° NW 01:30:14 61° SW 01:40:01 10° SSE visible
02 Aug - 03:33:40 10° WSW 03:34:15 10° WSW 03:34:49 10° SW night (unlit)
02 Aug - 14:24:01 10° SSW 14:32:39 41° SE 14:41:33 10° ENE daylight
02 Aug - 16:28:07 10° WSW 16:37:23 53° NW 16:47:03 10° NE daylight
02 Aug - 18:37:49 10° WNW 18:44:34 20° NNW 18:51:27 10° NNE daylight
02 Aug - 20:47:43 10° NNW 20:53:48 17° N 20:59:56 10° NE visible
02 Aug - 22:52:32 10° NNW 23:01:50 39° NE 23:11:03 10° E visible
03 Aug - 00:57:15 10° NW 01:07:18 66° SW 01:17:11 10° SSE visible
03 Aug - 03:08:13 10° WSW 03:11:21 12° WSW 03:14:30 10° SW night (unlit)
03 Aug - 14:01:22 10° SSW 14:09:46 38° SE 14:18:26 10° ENE daylight
03 Aug - 16:05:06 10° WSW 16:14:24 57° NW 16:24:06 10° NE daylight
03 Aug - 18:14:33 10° WNW 18:21:25 21° NNW 18:28:28 10° NNE daylight
03 Aug - 20:24:42 10° NNW 20:30:37 17° N 20:36:36 10° NE visible
03 Aug - 22:29:38 10° NNW 22:38:47 36° NNE 22:47:52 10° E visible
04 Aug - 00:34:15 10° NW 00:44:22 71° SW 00:54:20 10° SSE visible
04 Aug - 02:44:07 10° W 02:48:28 14° WSW 02:52:48 10° SSW night (unlit)
04 Aug - 13:38:43 10° S 13:46:54 35° SE 13:55:18 10° ENE daylight
04 Aug - 15:42:06 10° WSW 15:51:26 61° NW 16:01:11 10° NE daylight
04 Aug - 17:51:16 10° WNW 17:58:17 22° NNW 18:05:30 10° NNE daylight
04 Aug - 20:01:38 10° NNW 20:07:26 16° N 20:13:16 10° NE visible
04 Aug - 22:06:43 10° NNW 22:15:43 34° NNE 22:24:40 10° E visible
05 Aug - 00:11:15 10° NW 00:21:26 76° SW 00:31:27 10° SE visible
05 Aug - 02:20:20 10° W 02:25:34 15° WSW 02:30:47 10° SSW night (unlit)
05 Aug - 13:16:07 10° S 13:24:02 32° SE 13:32:09 10° ENE daylight
05 Aug - 15:19:06 10° WSW 15:28:28 65° NW 15:38:15 10° NE daylight
05 Aug - 17:28:00 10° WNW 17:35:10 22° NNW 17:42:32 10° NNE daylight
05 Aug - 19:38:34 10° NNW 19:44:15 16° N 19:49:58 10° NE visible
05 Aug - 21:43:49 10° NNW 21:52:39 33° NNE 22:01:27 10° E visible
05 Aug - 23:48:16 10° NW 23:58:29 81° SW 00:08:34 10° SE visible
06 Aug - 01:56:43 10° W 02:02:41 17° SW 02:08:36 10° SSW night (unlit)
06 Aug - 12:53:32 10° S 13:01:10 29° SE 13:08:58 10° ENE daylight
06 Aug - 14:56:09 10° SW 15:05:31 69° NW 15:15:18 10° NE daylight
06 Aug - 17:04:44 10° WNW 17:12:03 23° NNW 17:19:36 10° NNE daylight
06 Aug - 19:15:30 10° NNW 19:21:03 16° N 19:26:40 10° NE daylight
06 Aug - 21:20:55 10° NNW 21:29:35 31° NNE 21:38:14 10° E visible
06 Aug - 23:25:18 10° NW 23:35:32 86° SW 23:45:40 10° SE visible
07 Aug - 01:33:14 10° W 01:39:47 19° SW 01:46:18 10° SSW visible
07 Aug - 12:31:00 10° S 12:38:19 26° SE 12:45:45 10° ENE daylight
07 Aug - 14:33:11 10° SW 14:42:34 74° NW 14:52:22 10° NE daylight
07 Aug - 16:41:30 10° WNW 16:48:57 24° NNW 16:56:38 10° NNE daylight
07 Aug - 18:52:23 10° NNW 18:57:52 16° N 19:03:23 10° NE daylight
07 Aug - 20:58:01 10° NNW 21:06:29 29° NNE 21:14:58 10° E visible
07 Aug - 23:02:20 10° NW 23:12:35 88° NE 23:22:44 10° SE visible
